Tracking 25734 objects as of 27-May-2022
HD Live streaming from Space Station
objects crossing your sky now

OF-2

Track OF-2 now!
10-day predictions
OF-2 is classified as:


NORAD ID: 45113
Int'l Code: 2019-071C
Perigee: 432.9 km
Apogee: 447.2 km
Inclination: 51.6 °
Period: 93.2 minutes
Semi major axis: 6811 km
RCS: Unknown
Launch date: November 2, 2019
Source: United States (US)
Launch site: WALLOPS ISLAND (WLPIS)

Uplink (MHz):
Downlink (MHz): 435.040/2426.000
Beacon (MHz):
Mode: 9k6 GMSK/3-5Mbps QPSK
Call sign: KG5UAK
Status: Inactive

aabbcc
Your satellite tracking list
Your tracking list is empty




NASA's NSSDC Master Catalog

Two Line Element Set (TLE):
1 45113U 19071C   22146.76330013  .00023555  00000-0  50661-3 0  9991
2 45113  51.6372 166.0110 0010530  82.9587 277.2597 15.44475589130020
Source of the keplerian elements: Caltech